Latest METARs, TAFs and NOTAMs for LCLK


---------------------------------------------------------------------------
	(OBSERVATIONS)
LCLK 220230Z 33003KT 280V340 9999 FEW025 18/17 Q1014 NOSIG=
LCLK 220200Z 33003KT 9999 FEW025 19/17 Q1014 NOSIG=
LCLK 220130Z VRB02KT 9999 FEW025 19/17 Q1014 NOSIG=
LCLK 220100Z VRB02KT 9999 FEW025 19/17 Q1014 NOSIG=
LCLK 220030Z 27004KT 250V320 9999 FEW025 19/17 Q1014 NOSIG=
LCLK 220000Z VRB02KT 9999 FEW025 19/16 Q1014 NOSIG=
---------------------------------------------------------------------------
	(FC)
Sorry, FC For LCLK Not Found
---------------------------------------------------------------------------
	(TERMINAL AREA FORECAST)
LCLK 212330Z 2200/2224 32006KT 9999 FEW025
    BECMG 2208/2211 13012KT
    BECMG 2216/2218 02008KT=
---------------------------------------------------------------------------
	(NOTAMS)


LCLK A0016/10 THERE ARE FREQUENT REPORTS OF LASER LIGHTS DIRECTED
    AT ACFT MOSTLY FROM THE FOLLOWING AREAS: 1.ON ARRIVALS FROM
    NW WITHIN OF 20NM FROM AD 2.ON LETDOWN PROCEDURES RWY22 AIRCREW
    SHALL BE VIGILANT TO SUCH EVENTS AND REPORT THEM TO ATC PASSING
    WHERE POSSIBLE INFO AS TO THE LOCATION. 12 JAN 09:27 2010
    UNTIL PERM. CREATED: 12 JAN 09:37 2010

LCLK A0110/12 NEW HELIPAD FOR CYPRUS POLICE USE ONLY ESTABLISHED
    250 METERS NORTH OF THE ATC TOWER ENCLOSED BY THE FOLLOWING
    COORDINATES: 3452.502N03337.012E 3452.528N03337.013E 3452.518N03337.185E
    3452.465N03337.118E HOURS OF OPERATION: H24. 08 FEB 14:53
    2012 UNTIL PERM. CREATED: 08 FEB 15:02 2012

LCLK A0694/12 OBSTACLE ERECTED TYPE: ANTENNA COORDINATES: 345228.69N0333700.25E
    ELEVATION AT TOP: 39.5M AMSL MARKED AND LIGHTED (RED. 16
    AUG 18:42 2012 UNTIL PERM. CREATED: 16 AUG 18:46 2012

LCLK A0695/12 OBSTACLE ERECTED TYPE: WIND MEASUREMENT MAST COORDINATES:
    345227N 0333110E HEIGHT : 50M AGL ELAVATION AT TOP : 240M
    AMSL MARKED AND LIGHTED. 16 AUG 18:48 2012 UNTIL PERM. CREATED:
    16 AUG 18:50 2012

LCLK A0762/15 OBSTACLE ERECTED NAME: LC-0005CR TYPE: CRANE COORDINATES:
    345554.27N0333814.51E HEIGHT: 65.5M AGL ELEVATION AT TOP:
    71M AMSL MARKED AND LIGHTED. 24 JUN 07:35 2015 UNTIL PERM.
    CREATED: 24 JUN 07:40 2015

LCLK A0924/15 FOR FLIGHT PLANNING PURPOSES ALL ARRIVALS TO LCA
    ENTERING NICOSIA FIR VIA TOSKA, EVENO, TOMBI MUST ROUTE TO
    BONEK FOR THE BONEK1A ARRIVAL. ALL OTHER STARS AVAILABLE
    ONLY BY ATC. 31 JUL 00:01 2015 UNTIL PERM. CREATED: 30 JUL
    11:29 2015

LCLK A0938/18 A GROUP OF TWO (2) CRANES ERECTED AT LARNAKA PORT
    AT THE FOLLOWING POSITIONS: 345529.26N0333840.08E HEIGHT
    84M AT THE TOP 86.3M AMSL NOT LIGHTED 345525.08N0333830.27E
    HEIGHT 84M AT THE TOP 86.3M AMSL NOT LIGHTED. 20 JUN 11:03
    2018 UNTIL PERM. CREATED: 20 JUN 11:03 2018

LCLK A1070/18 INTL VFR FLIGHTS ARRIVING/DEPARTING LCPH ARE NOT
    PERMITTED TO ENTER LCLK CONTROL ZONE. PILOTS ARE REQUESTED
    TO FILE FLIGHT PLANS VIA POINT APLON. 23 JUL 11:18 2018 UNTIL
    22 OCT 10:00 2018 ESTIMATED. CREATED: 23 JUL 11:19 2018

LCLK A1091/18 CLEARANCE DELIVERY FREQUENCY 120.575 MHZ AVAILABLE
    AT TIMES. CHECK ATIS. 25 JUL 14:00 2018 UNTIL PERM. CREATED:
    25 JUL 14:08 2018

LCLK A1140/18 AERODROME OPERATING MINIMA FOR DEPARTURE ARE DEFINED
    AS 800M RUNWAY VISUAL RANGE CONDITIONS (RVR. 31 JUL 15:06
    2018 UNTIL 30 OCT 23:59 2018 ESTIMATED. CREATED: 31 JUL 15:06
    2018

LCLK A1180/14 OBSTACLE ERECTED TYPE: ANTENNA COORDINATES: 345330.64N0333816.55E
    HEIGHT:28.69M AGL ELEVATION AT TOP: 31.25M AMSL MARKED AND
    LIGHTED (RED. 13 NOV 05:00 2014 UNTIL PERM. CREATED: 11 NOV
    11:52 2014

LCLK A1197/14 FOR FLIGHT PLANNING PURPOSES ALL DEPARTURES LCA
    RWY22 EXITING NICOSIA FIR VIA TOSKA, EVENO, TOMBI MUST ROUTE:
    1. PAFOS 2B PHA DCT GENOS DCT TOSKA 2. PAFOS 2B PHA DCT GENOS
    DCT PEDER DCT EVENO 3. PAFOS 2B PHA DCT GENOS DCT PEDER A16/UA16
    TOMBI ALL OTHER SIDS ONLY AVAILABLE BY ATC. 13 NOV 13:58
    2014 UNTIL PERM. CREATED: 13 NOV 13:59 2014

LCLK A1356/18 RWY 22/04 CLOSED DUE TO WIP. THU 2300-FRI 0340,
    01 NOV 23:00 2018 UNTIL 21 DEC 03:40 2018. CREATED: 10 SEP
    08:26 2018

LCLK A1357/18 RWY 22/04 CLOSED DUE TO WIP. FRI 0350-0500, 02
    NOV 03:50 2018 UNTIL 21 DEC 05:00 2018. CREATED: 10 SEP 09:27
    2018

LCLK A1359/18 RWY 22/04 CLOSED DUE TO WIP. THU 2300-FRI 0340,
    17 JAN 23:00 2019 UNTIL 08 MAR 03:40 2019. CREATED: 11 SEP
    08:47 2018

LCLK A1360/18 RWY 22/04 CLOSED DUE TO WIP. FRI 0350-0500, 18
    JAN 03:50 2019 UNTIL 08 MAR 05:00 2019. CREATED: 11 SEP 08:48
    2018

LCLK A1531/18 LARNAKA APP PRIMARY FREQUENCY CHANGED TO 130.2
    MHZ. FREQUENCY 121.2 MHZ TO BE USED AS ALTERNATE. 09 OCT
    09:45 2018 UNTIL PERM. CREATED: 09 OCT 09:55 2018

LCLK A1532/18 LARNAKA TWR PRIMARY FREQUENCY CHANGED TO 130.2
    MHZ. FREQUENCY 121.2 MHZ TO BE USED AS ALTERNATE. 09 OCT
    09:48 2018 UNTIL PERM. CREATED: 09 OCT 10:06 2018

LCLK A1578/18 TWY U CLOSED TWY C CLOSED FROM INTERMEDIATE HOLDING
    POINT C7 LEADING TO TWY H DUE TO WIP. 22 OCT 04:30 2018 UNTIL
    26 OCT 12:00 2018. CREATED: 16 OCT 08:51 2018

LCLK A1579/18 FAST EXIT TWY H CLOSED. 22 OCT 05:30 2018 UNTIL
    26 OCT 12:00 2018. CREATED: 16 OCT 08:54 2018

LCLK A1580/18 TWY L CLOSED FROM INTERMEDIATE HOLDING POSITION
    L4 UNTIL L5 DUE TO WIP. 30 OCT 05:00 2018 UNTIL 30 OCT 08:00
    2018. CREATED: 16 OCT 08:54 2018

LCLK A1592/18 TAXILANE CT CLOSED AIRCRAFT PARKED ON STANDS 61-64
    WILL PUSHOUT. 18 OCT 07:00 2018 UNTIL 31 OCT 12:00 2018 ESTIMATED.
    CREATED: 18 OCT 07:07 2018

LCLK A1627/17 OBSTACLE ERECTED TYPE: CRANE COORDINATES: 345406.34N0333812.87E
    HEIGHT: 48M AGL ELEVATION AT TOP: 50M AMSL MARKED,LIGHTED.
    10 NOV 09:45 2017 UNTIL PERM. CREATED: 10 NOV 09:47 2017

---------------------------------------------------------------------------